This is the latest recevied weather packets stored in our database for station/object DK1CC-11. If no packets are shown the sender has not sent any weather packets the latest 1 day(s).
| Time | Temp. | Humidity | Pressure | Rain* | Wind** | Luminosity | Snow |
|---|---|---|---|---|---|---|---|
| 1788281942 | 23.33° C | 50% | 1008.7 hPa | - | - | - | - |
| 1788281042 | 23.33° C | 48% | 1008.8 hPa | - | - | - | - |
| 1788280142 | 23.89° C | 49% | 1008.8 hPa | - | - | - | - |
| 1788279242 | 23.89° C | 47% | 1008.9 hPa | - | - | - | - |
| 1788278342 | 23.89° C | 51% | 1008.9 hPa | - | - | - | - |
| 1788277442 | 23.33° C | 49% | 1009 hPa | - | - | - | - |
| 1788276542 | 23.33° C | 53% | 1008.9 hPa | - | - | - | - |
| 1788275642 | 23.33° C | 51% | 1008.9 hPa | - | - | - | - |
| 1788274741 | 23.33° C | 51% | 1008.9 hPa | - | - | - | - |
| 1788273841 | 23.33° C | 51% | 1009 hPa | - | - | - | - |
| 1788272941 | 22.78° C | 53% | 1009.1 hPa | - | - | - | - |
| 1788272041 | 22.78° C | 51% | 1009.3 hPa | - | - | - | - |
| 1788271141 | 22.78° C | 54% | 1009.3 hPa | - | - | - | - |
| 1788270241 | 22.22° C | 56% | 1009.4 hPa | - | - | - | - |
| 1788269341 | 22.78° C | 52% | 1009.5 hPa | - | - | - | - |
| 1788268441 | 23.33° C | 52% | 1009.5 hPa | - | - | - | - |
| 1788267541 | 22.78° C | 52% | 1009.7 hPa | - | - | - | - |
| 1788266641 | 22.78° C | 51% | 1009.8 hPa | - | - | - | - |
| 1788265741 | 22.78° C | 49% | 1009.8 hPa | - | - | - | - |
| 1788264841 | 22.22° C | 53% | 1009.9 hPa | - | - | - | - |
| 1788263941 | 22.22° C | 55% | 1009.9 hPa | - | - | - | - |
| 1788263041 | 21.67° C | 56% | 1010 hPa | - | - | - | - |
| 1788262141 | 21.11° C | 58% | 1010.1 hPa | - | - | - | - |
| 1788261241 | 21.67° C | 56% | 1010.1 hPa | - | - | - | - |
| 1788260340 | 21.11° C | 61% | 1010.2 hPa | - | - | - | - |
* Rain since midnight (hover to see other rain measurements)
** Current wind speed in m/s (hover to see current wind gust speed)